Location: Black Swamp Observatory
(41.3920°N, 84.1250°W)
Time: 22:29:17
(UTC-05:00)

Tiros 1 despin weight - Visible Passes

Search period start: 27 January 2022 00:00
Search period end: 06 February 2022 00:00
Orbit: 592 x 641 km, 48.2° (Epoch: 27 January)

Date Brightness Start Highest point End Pass type
(mag) Time Alt. Az. Time Alt. Az. Time Alt. Az.
27 Jan ? 18:26:52 10° W 18:31:09 38° N 18:35:15 11° ENE visible
27 Jan ? 20:09:04 10° WNW 20:12:17 33° NNW 20:12:17 33° NNW visible
28 Jan ? 18:43:17 10° WNW 18:47:29 35° N 18:50:42 16° ENE visible
28 Jan ? 20:25:12 10° WNW 20:27:44 30° NW 20:27:44 30° NW visible
29 Jan ? 18:59:37 10° WNW 19:03:51 36° N 19:06:12 22° ENE visible
29 Jan ? 20:41:16 10° WNW 20:43:14 25° NW 20:43:14 25° NW visible
30 Jan ? 19:15:48 10° WNW 19:20:10 42° NNE 19:21:44 31° ENE visible
30 Jan ? 20:57:21 10° WNW 20:58:47 20° WNW 20:58:47 20° WNW visible
31 Jan ? 19:31:53 10° WNW 19:36:26 56° NNE 19:37:21 47° ENE visible
31 Jan ? 21:13:34 10° WNW 21:14:23 15° WNW 21:14:23 15° WNW visible
01 Feb ? 19:47:57 10° WNW 19:52:34 85° NNE 19:53:02 71° ESE visible
02 Feb ? 18:22:30 10° WNW 18:26:55 46° NNE 18:31:23 10° E visible
02 Feb ? 20:04:04 10° WNW 20:08:35 58° SW 20:08:51 57° SSW visible
03 Feb ? 18:38:34 10° WNW 18:43:07 65° NNE 18:47:44 10° ESE visible
03 Feb ? 20:20:22 10° WNW 20:24:29 32° SW 20:24:49 32° SSW visible
04 Feb ? 18:54:37 10° WNW 18:59:12 81° SSW 19:03:51 10° SE visible
04 Feb ? 20:37:13 10° W 20:40:14 17° SW 20:40:59 17° SW visible
05 Feb ? 19:10:48 10° WNW 19:15:11 46° SW 19:19:36 10° SE visible
